Time,TemperatureF,DewpointF,PressureIn,WindDirection,WindDirectionDegrees,WindSpeedMPH,WindSpeedGustMPH,Humidity,HourlyPrecipIn,Conditions,Clouds,dailyrainin,SoftwareType,DateUTC
2013-08-01 00:03:00,68.0,66.0,29.99,NE,51,0.0,0.0,93,0.00,,,0.08,,2013-08-01 04:03:00,
2013-08-01 00:12:00,67.0,65.0,30.00,NE,51,0.0,0.0,94,0.00,,,0.08,,2013-08-01 04:12:00,
2013-08-01 00:22:00,67.0,65.0,30.00,NE,51,0.0,1.0,94,0.00,,,0.06,,2013-08-01 04:22:00,
2013-08-01 00:33:00,67.0,66.0,29.99,NE,51,0.0,0.0,95,0.00,,,0.06,,2013-08-01 04:33:00,
2013-08-01 00:43:00,67.0,66.0,29.99,NE,51,0.0,0.0,95,0.00,,,0.06,,2013-08-01 04:43:00,
2013-08-01 00:52:00,66.0,65.0,29.99,NE,51,0.0,0.0,95,0.00,,,0.06,,2013-08-01 04:52:00,
2013-08-01 01:02:00,66.0,65.0,29.99,NE,51,0.0,0.0,95,0.00,,,0.06,,2013-08-01 05:02:00,
2013-08-01 01:13:00,66.0,65.0,29.98,NE,51,0.0,0.0,95,0.00,,,0.06,,2013-08-01 05:13:00,
2013-08-01 01:23:00,65.0,64.0,29.99,NE,51,0.0,0.0,96,0.00,,,0.05,,2013-08-01 05:23:00,
2013-08-01 01:33:00,65.0,64.0,29.99,NE,51,0.0,0.0,96,0.00,,,0.05,,2013-08-01 05:33:00,
2013-08-01 01:43:00,65.0,64.0,29.99,NE,51,0.0,0.0,96,0.00,,,0.05,,2013-08-01 05:43:00,
2013-08-01 01:53:00,65.0,64.0,29.98,NE,51,0.0,0.0,96,0.00,,,0.05,,2013-08-01 05:53:00,
2013-08-01 02:02:00,64.0,63.0,29.98,NE,51,0.0,0.0,96,0.00,,,0.05,,2013-08-01 06:02:00,
2013-08-01 02:12:00,64.0,63.0,29.98,NE,51,0.0,0.0,96,0.00,,,0.05,,2013-08-01 06:12:00,
2013-08-01 02:22:00,64.0,63.0,29.98,NE,51,0.0,0.0,96,0.00,,,0.04,,2013-08-01 06:22:00,
2013-08-01 02:33:00,64.0,63.0,29.97,NE,51,0.0,0.0,96,0.00,,,0.04,,2013-08-01 06:33:00,
2013-08-01 02:42:00,63.0,62.0,29.97,NE,51,0.0,0.0,96,0.00,,,0.04,,2013-08-01 06:42:00,
2013-08-01 02:52:00,63.0,62.0,29.97,NE,51,0.0,0.0,97,0.00,,,0.04,,2013-08-01 06:52:00,
2013-08-01 03:02:00,63.0,62.0,29.97,NE,51,0.0,0.0,97,0.00,,,0.04,,2013-08-01 07:02:00,
2013-08-01 03:12:00,63.0,62.0,29.96,NE,51,0.0,0.0,97,0.00,,,0.04,,2013-08-01 07:12:00,
2013-08-01 03:23:00,63.0,62.0,29.96,NE,51,0.0,0.0,97,0.00,,,0.03,,2013-08-01 07:23:00,
2013-08-01 03:32:00,63.0,62.0,29.96,NE,51,0.0,0.0,97,0.00,,,0.03,,2013-08-01 07:32:00,
2013-08-01 03:43:00,63.0,62.0,29.96,NE,51,0.0,0.0,97,0.00,,,0.03,,2013-08-01 07:43:00,
2013-08-01 03:53:00,63.0,62.0,29.96,NE,51,0.0,0.0,97,0.00,,,0.03,,2013-08-01 07:53:00,
2013-08-01 04:15:00,62.0,61.0,29.97,NE,51,0.0,0.0,97,0.00,,,0.03,,2013-08-01 08:15:00,
2013-08-01 04:25:00,62.0,61.0,29.97,NE,51,0.0,0.0,97,0.00,,,0.02,,2013-08-01 08:25:00,
2013-08-01 04:38:00,62.0,61.0,29.97,NE,51,0.0,0.0,97,0.00,,,0.02,,2013-08-01 08:38:00,
2013-08-01 04:45:00,62.0,61.0,29.97,NE,51,0.0,0.0,97,0.00,,,0.02,,2013-08-01 08:45:00,
2013-08-01 05:15:00,61.0,60.0,29.97,NE,51,0.0,0.0,97,0.00,,,0.02,,2013-08-01 09:15:00,
2013-08-01 05:20:00,61.0,60.0,29.97,NE,51,0.0,0.0,97,0.00,,,0.02,,2013-08-01 09:20:00,
2013-08-01 05:32:00,61.0,60.0,29.97,NE,51,0.0,0.0,97,0.00,,,0.02,,2013-08-01 09:32:00,
2013-08-01 05:42:00,60.0,59.0,29.97,NE,51,0.0,0.0,97,0.00,,,0.02,,2013-08-01 09:42:00,
2013-08-01 05:50:00,60.0,59.0,29.97,NE,51,0.0,0.0,97,0.00,,,0.02,,2013-08-01 09:50:00,
2013-08-01 06:41:00,59.0,58.0,29.98,NE,51,0.0,0.0,97,0.00,,,0.02,,2013-08-01 10:41:00,
2013-08-01 06:59:00,59.0,58.0,29.98,NE,51,0.0,0.0,97,0.00,,,0.02,,2013-08-01 10:59:00,
2013-08-01 07:13:00,59.0,58.0,29.99,NE,51,0.0,0.0,97,0.01,,,0.03,,2013-08-01 11:13:00,
2013-08-01 07:19:00,59.0,58.0,29.99,NE,51,0.0,0.0,98,0.01,,,0.03,,2013-08-01 11:19:00,
2013-08-01 07:33:00,59.0,58.0,29.99,NE,51,0.0,0.0,98,0.01,,,0.03,,2013-08-01 11:33:00,
2013-08-01 07:42:00,59.0,58.0,29.99,NE,51,0.0,0.0,98,0.01,,,0.03,,2013-08-01 11:42:00,
2013-08-01 07:48:00,60.0,59.0,30.00,NE,51,0.0,0.0,98,0.01,,,0.03,,2013-08-01 11:48:00,
2013-08-01 08:32:00,61.0,60.0,30.01,NE,51,0.0,0.0,98,0.00,,,0.03,,2013-08-01 12:32:00,
2013-08-01 08:37:00,61.0,61.0,30.00,NE,51,0.0,0.0,99,0.00,,,0.03,,2013-08-01 12:37:00,
2013-08-01 08:57:00,62.0,62.0,30.01,NE,51,0.0,0.0,99,0.00,,,0.03,,2013-08-01 12:57:00,
2013-08-01 09:20:00,63.0,63.0,30.01,NE,51,0.0,0.0,99,0.00,,,0.03,,2013-08-01 13:20:00,
2013-08-01 09:41:00,65.0,65.0,30.01,NE,51,0.0,0.0,99,0.00,,,0.02,,2013-08-01 13:41:00,
2013-08-01 10:14:00,67.0,66.0,30.01,NE,51,0.0,2.0,98,0.00,,,0.02,,2013-08-01 14:14:00,
2013-08-01 11:13:00,74.0,69.0,30.01,NW,307,0.0,1.0,85,0.00,,,0.02,,2013-08-01 15:13:00,
2013-08-01 11:20:00,74.0,69.0,30.01,NW,307,0.0,1.0,84,0.00,,,0.02,,2013-08-01 15:20:00,
2013-08-01 11:38:00,76.0,70.0,30.00,NW,307,0.0,2.0,81,0.00,,,0.01,,2013-08-01 15:38:00,
2013-08-01 11:57:00,76.0,69.0,30.00,NW,307,0.0,2.0,80,0.00,,,0.01,,2013-08-01 15:57:00,
2013-08-01 12:16:00,78.0,66.0,30.01,NNW,331,1.0,5.0,67,0.00,,,0.01,,2013-08-01 16:16:00,
2013-08-01 12:28:00,78.0,66.0,30.01,North,5,1.0,5.0,67,0.00,,,0.01,,2013-08-01 16:28:00,
2013-08-01 12:40:00,78.0,64.0,30.00,NNW,333,1.0,4.0,62,0.00,,,0.01,,2013-08-01 16:40:00,
2013-08-01 12:48:00,79.0,64.0,30.00,NNW,346,2.0,5.0,60,0.00,,,0.01,,2013-08-01 16:48:00,
2013-08-01 12:53:00,79.0,62.0,30.00,NNW,339,2.0,7.0,57,0.00,,,0.01,,2013-08-01 16:53:00,
2013-08-01 13:13:00,79.0,62.0,30.00,North,355,1.0,4.0,57,0.00,,,0.01,,2013-08-01 17:13:00,
2013-08-01 13:31:00,80.0,65.0,30.00,NNW,339,1.0,5.0,60,0.00,,,0.01,,2013-08-01 17:31:00,
2013-08-01 13:42:00,80.0,62.0,30.00,North,351,3.0,17.0,54,0.00,,,0.01,,2013-08-01 17:42:00,
2013-08-01 14:18:00,80.0,63.0,30.00,NNW,348,1.0,7.0,56,0.00,,,0.01,,2013-08-01 18:18:00,
2013-08-01 14:32:00,80.0,62.0,30.00,North,349,3.0,9.0,55,0.00,,,0.01,,2013-08-01 18:32:00,
2013-08-01 14:51:00,80.0,62.0,30.00,NNW,334,3.0,13.0,54,0.00,,,0.01,,2013-08-01 18:51:00,
2013-08-01 15:10:00,81.0,64.0,30.00,NNW,333,2.0,10.0,56,0.00,,,0.01,,2013-08-01 19:10:00,
2013-08-01 15:30:00,80.0,61.0,30.00,NNW,344,2.0,5.0,52,0.00,,,0.01,,2013-08-01 19:30:00,
2013-08-01 15:58:00,82.0,63.0,29.99,NNW,340,1.0,9.0,53,0.00,,,0.01,,2013-08-01 19:58:00,
2013-08-01 16:18:00,81.0,64.0,29.98,NNW,337,1.0,4.0,57,0.00,,,0.01,,2013-08-01 20:18:00,
2013-08-01 16:27:00,81.0,64.0,29.99,NW,324,3.0,8.0,56,0.00,,,0.01,,2013-08-01 20:27:00,
2013-08-01 17:14:00,82.0,65.0,29.98,NNW,342,1.0,5.0,56,0.00,,,0.01,,2013-08-01 21:14:00,
2013-08-01 17:26:00,80.0,63.0,29.98,NNW,346,1.0,9.0,56,0.00,,,0.01,,2013-08-01 21:26:00,
2013-08-01 17:43:00,80.0,64.0,29.98,North,355,2.0,4.0,59,0.00,,,0.01,,2013-08-01 21:43:00,
2013-08-01 17:53:00,81.0,65.0,29.98,NNW,342,1.0,8.0,58,0.00,,,0.01,,2013-08-01 21:53:00,
2013-08-01 18:07:00,80.0,62.0,29.98,NW,323,1.0,4.0,55,0.00,,,0.01,,2013-08-01 22:07:00,
2013-08-01 18:23:00,80.0,62.0,29.97,North,355,1.0,8.0,55,0.00,,,0.01,,2013-08-01 22:23:00,
2013-08-01 18:35:00,79.0,62.0,29.97,NNE,13,1.0,7.0,57,0.00,,,0.01,,2013-08-01 22:35:00,
2013-08-01 18:46:00,79.0,63.0,29.97,NNW,348,1.0,4.0,59,0.00,,,0.01,,2013-08-01 22:46:00,
2013-08-01 19:16:00,77.0,62.0,29.96,North,355,1.0,5.0,59,0.00,,,0.01,,2013-08-01 23:16:00,
2013-08-01 19:25:00,77.0,62.0,29.96,North,355,1.0,6.0,59,0.00,,,0.01,,2013-08-01 23:25:00,
2013-08-01 19:32:00,76.0,62.0,29.96,North,5,0.0,3.0,61,0.00,,,0.01,,2013-08-01 23:32:00,
2013-08-01 19:47:00,76.0,61.0,29.96,NW,314,0.0,7.0,60,0.00,,,0.01,,2013-08-01 23:47:00,
2013-08-01 19:56:00,76.0,61.0,29.96,NNW,331,0.0,7.0,59,0.00,,,0.01,,2013-08-01 23:56:00,
2013-08-01 20:08:00,75.0,60.0,29.96,NNW,338,0.0,7.0,60,0.00,,,0.01,,2013-08-02 00:08:00,
2013-08-01 20:27:00,74.0,61.0,29.96,NNW,348,0.0,3.0,63,0.00,,,0.01,,2013-08-02 00:27:00,
2013-08-01 20:55:00,73.0,63.0,29.96,NNW,348,0.0,0.0,71,0.00,,,0.01,,2013-08-02 00:55:00,
2013-08-01 21:03:00,72.0,61.0,29.97,NNW,348,0.0,0.0,69,0.00,,,0.01,,2013-08-02 01:03:00,
2013-08-01 21:16:00,71.0,60.0,29.98,NNW,348,0.0,0.0,69,0.00,,,0.01,,2013-08-02 01:16:00,
2013-08-01 21:27:00,70.0,61.0,29.97,NNW,348,0.0,0.0,72,0.00,,,0.01,,2013-08-02 01:27:00,
2013-08-01 21:46:00,68.0,60.0,29.97,NNW,348,0.0,0.0,75,0.00,,,0.01,,2013-08-02 01:46:00,
2013-08-01 21:55:00,67.0,60.0,29.97,NNW,348,0.0,0.0,77,0.00,,,0.01,,2013-08-02 01:55:00,
2013-08-01 22:07:00,67.0,60.0,29.97,NNW,348,0.0,0.0,77,0.00,,,0.01,,2013-08-02 02:07:00,
2013-08-01 22:27:00,66.0,59.0,29.98,NNW,348,0.0,0.0,79,0.00,,,0.01,,2013-08-02 02:27:00,
2013-08-01 22:35:00,66.0,59.0,29.98,NNW,348,0.0,0.0,79,0.00,,,0.01,,2013-08-02 02:35:00,
2013-08-01 22:45:00,65.0,58.0,29.98,NNW,348,0.0,0.0,79,0.00,,,0.01,,2013-08-02 02:45:00,
2013-08-01 22:52:00,65.0,59.0,29.98,NNW,348,0.0,0.0,80,0.00,,,0.01,,2013-08-02 02:52:00,
2013-08-01 23:13:00,65.0,60.0,29.98,NNW,348,0.0,0.0,83,0.00,,,0.01,,2013-08-02 03:13:00,
2013-08-01 23:23:00,64.0,59.0,29.98,NNW,348,0.0,0.0,84,0.00,,,0.01,,2013-08-02 03:23:00,
2013-08-01 23:37:00,64.0,59.0,29.99,NNW,348,0.0,0.0,84,0.00,,,0.01,,2013-08-02 03:37:00,
2013-08-01 23:47:00,63.0,58.0,29.99,NNW,348,0.0,0.0,84,0.00,,,0.01,,2013-08-02 03:47:00,